TimeCDT,TemperatureF,Dew PointF,Humidity,Sea Level PressureIn,VisibilityMPH,Wind Direction,Wind SpeedMPH,Gust SpeedMPH,PrecipitationIn,Events,Conditions,WindDirDegrees,DateUTC
12:15 AM,53.6,51.8,94,29.70,10.0,NW,5.8,-,N/A,,Clear,310,2011-10-13 05:15:00
12:35 AM,53.6,51.8,94,29.70,10.0,NW,5.8,-,N/A,,Clear,310,2011-10-13 05:35:00
12:55 AM,53.6,50.0,88,29.70,10.0,NW,4.6,-,N/A,,Clear,310,2011-10-13 05:55:00
1:15 AM,53.6,50.0,88,29.69,7.0,WNW,5.8,-,N/A,,Clear,300,2011-10-13 06:15:00
1:35 AM,53.6,50.0,88,29.69,7.0,WNW,5.8,-,N/A,,Clear,300,2011-10-13 06:35:00
1:55 AM,51.8,48.2,88,29.69,5.0,WNW,4.6,-,N/A,,Clear,300,2011-10-13 06:55:00
2:15 AM,51.8,50.0,94,29.69,7.0,Calm,Calm,-,N/A,,Clear,0,2011-10-13 07:15:00
2:35 AM,51.8,48.2,88,29.69,10.0,WNW,4.6,-,N/A,,Clear,300,2011-10-13 07:35:00
2:55 AM,51.8,46.4,82,29.68,10.0,WNW,6.9,-,N/A,,Clear,300,2011-10-13 07:55:00
3:15 AM,51.8,46.4,82,29.68,10.0,NW,8.1,-,N/A,,Clear,310,2011-10-13 08:15:00
3:35 AM,51.8,46.4,82,29.68,10.0,NW,6.9,-,N/A,,Clear,310,2011-10-13 08:35:00
3:55 AM,51.8,44.6,76,29.68,10.0,NW,12.7,16.1,N/A,,Clear,310,2011-10-13 08:55:00
4:15 AM,51.8,44.6,76,29.68,10.0,NW,13.8,-,N/A,,Clear,310,2011-10-13 09:15:00
4:35 AM,51.8,44.6,76,29.68,10.0,WNW,12.7,-,N/A,,Clear,300,2011-10-13 09:35:00
4:55 AM,51.8,44.6,76,29.69,10.0,WNW,12.7,-,N/A,,Clear,300,2011-10-13 09:55:00
5:15 AM,51.8,44.6,76,29.69,10.0,WNW,10.4,16.1,N/A,,Clear,290,2011-10-13 10:15:00
5:35 AM,51.8,44.6,76,29.70,10.0,WNW,12.7,18.4,N/A,,Clear,300,2011-10-13 10:35:00
5:55 AM,50.0,44.6,82,29.70,10.0,WNW,12.7,-,N/A,,Clear,300,2011-10-13 10:55:00
6:15 AM,51.8,44.6,76,29.70,10.0,WNW,13.8,-,N/A,,Clear,300,2011-10-13 11:15:00
6:35 AM,51.8,44.6,76,29.70,10.0,WNW,13.8,-,N/A,,Clear,300,2011-10-13 11:35:00
6:55 AM,51.8,44.6,76,29.70,10.0,WNW,12.7,-,N/A,,Clear,300,2011-10-13 11:55:00
7:15 AM,50.0,44.6,82,29.70,10.0,WNW,11.5,-,N/A,,Clear,300,2011-10-13 12:15:00
7:35 AM,48.2,44.6,87,29.71,10.0,WNW,10.4,-,N/A,,Clear,300,2011-10-13 12:35:00
7:55 AM,50.0,44.6,82,29.71,10.0,WNW,10.4,-,N/A,,Clear,300,2011-10-13 12:55:00
8:15 AM,51.8,44.6,76,29.71,10.0,WNW,10.4,-,N/A,,Clear,300,2011-10-13 13:15:00
8:35 AM,51.8,44.6,76,29.71,10.0,WNW,11.5,16.1,N/A,,Clear,300,2011-10-13 13:35:00
9:15 AM,53.6,44.6,72,29.72,10.0,WNW,13.8,-,N/A,,Clear,300,2011-10-13 14:15:00
9:35 AM,55.4,46.4,72,29.73,10.0,WNW,12.7,18.4,N/A,,Clear,300,2011-10-13 14:35:00
9:55 AM,55.4,46.4,72,29.73,10.0,WNW,12.7,-,N/A,,Clear,300,2011-10-13 14:55:00
10:15 AM,57.2,44.6,63,29.73,10.0,NW,15.0,-,N/A,,Clear,310,2011-10-13 15:15:00
10:35 AM,57.2,44.6,63,29.73,10.0,NW,17.3,21.9,N/A,,Clear,310,2011-10-13 15:35:00
10:55 AM,59.0,44.6,59,29.73,10.0,NW,15.0,21.9,N/A,,Clear,310,2011-10-13 15:55:00
11:15 AM,60.8,42.8,52,29.72,10.0,NW,12.7,20.7,N/A,,Clear,310,2011-10-13 16:15:00
11:35 AM,62.6,41.0,45,29.72,10.0,NW,13.8,20.7,N/A,,Clear,320,2011-10-13 16:35:00
11:55 AM,62.6,37.4,39,29.72,10.0,NW,16.1,26.5,N/A,,Clear,310,2011-10-13 16:55:00
12:15 PM,64.4,37.4,37,29.71,10.0,NW,23.0,31.1,N/A,,Clear,310,2011-10-13 17:15:00
12:35 PM,64.4,37.4,37,29.71,10.0,NW,20.7,33.4,N/A,,Clear,320,2011-10-13 17:35:00
12:55 PM,64.4,35.6,34,29.71,10.0,NW,20.7,28.8,N/A,,Clear,320,2011-10-13 17:55:00
1:15 PM,64.4,35.6,34,29.70,10.0,NW,25.3,32.2,N/A,,Clear,310,2011-10-13 18:15:00
1:35 PM,64.4,37.4,37,29.70,10.0,WNW,26.5,33.4,N/A,,Clear,300,2011-10-13 18:35:00
1:55 PM,64.4,35.6,34,29.69,10.0,WNW,26.5,33.4,N/A,,Scattered Clouds,300,2011-10-13 18:55:00
2:15 PM,64.4,35.6,34,29.69,10.0,NW,21.9,33.4,N/A,,Clear,310,2011-10-13 19:15:00
2:35 PM,64.4,37.4,37,29.68,10.0,NW,19.6,27.6,N/A,,Scattered Clouds,310,2011-10-13 19:35:00
3:15 PM,62.6,37.4,39,29.68,10.0,NW,19.6,29.9,N/A,,Clear,310,2011-10-13 20:15:00
3:35 PM,64.4,35.6,34,29.67,10.0,WNW,17.3,27.6,N/A,,Scattered Clouds,290,2011-10-13 20:35:00
3:55 PM,66.2,35.6,32,29.66,10.0,WNW,20.7,31.1,N/A,,Mostly Cloudy,300,2011-10-13 20:55:00
4:15 PM,60.8,42.8,52,29.67,7.0,NNW,19.6,24.2,0.01,Rain,Rain,330,2011-10-13 21:15:00
4:35 PM,57.2,41.0,55,29.68,7.0,NW,16.1,25.3,0.03,Rain,Light Rain,320,2011-10-13 21:35:00
4:55 PM,57.2,42.8,59,29.68,10.0,NW,11.5,19.6,0.03,Rain,Light Rain,320,2011-10-13 21:55:00
5:15 PM,57.2,42.8,59,29.69,10.0,NW,11.5,-,N/A,,Mostly Cloudy,310,2011-10-13 22:15:00
5:35 PM,57.2,39.2,51,29.69,10.0,NW,12.7,19.6,N/A,,Mostly Cloudy,320,2011-10-13 22:35:00
5:55 PM,57.2,41.0,55,29.68,10.0,NNW,11.5,-,N/A,,Mostly Cloudy,330,2011-10-13 22:55:00
6:15 PM,55.4,42.8,63,29.69,10.0,North,5.8,-,N/A,,Scattered Clouds,350,2011-10-13 23:15:00
6:35 PM,55.4,42.8,63,29.69,10.0,NW,4.6,-,N/A,,Light Drizzle,320,2011-10-13 23:35:00
7:15 PM,53.6,42.8,67,29.71,10.0,NW,8.1,-,N/A,,Scattered Clouds,320,2011-10-14 00:15:00
7:35 PM,53.6,41.0,62,29.71,10.0,NW,5.8,-,N/A,,Scattered Clouds,320,2011-10-14 00:35:00
7:55 PM,51.8,42.8,71,29.71,10.0,NW,4.6,-,N/A,,Clear,310,2011-10-14 00:55:00
8:15 PM,48.2,42.8,82,29.71,10.0,WNW,5.8,-,N/A,,Clear,300,2011-10-14 01:15:00
8:35 PM,48.2,41.0,76,29.71,10.0,WNW,5.8,-,N/A,,Clear,290,2011-10-14 01:35:00
8:55 PM,44.6,41.0,87,29.70,10.0,West,6.9,-,N/A,,Clear,280,2011-10-14 01:55:00
9:15 PM,44.6,39.2,81,29.70,10.0,West,6.9,-,N/A,,Clear,280,2011-10-14 02:15:00
9:35 PM,44.6,39.2,81,29.70,10.0,West,6.9,-,N/A,,Scattered Clouds,270,2011-10-14 02:35:00
9:55 PM,44.6,41.0,87,29.71,10.0,West,8.1,-,N/A,,Mostly Cloudy,260,2011-10-14 02:55:00
10:15 PM,46.4,42.8,87,29.71,10.0,West,9.2,-,N/A,,Mostly Cloudy,260,2011-10-14 03:15:00
10:35 PM,46.4,41.0,81,29.71,10.0,West,8.1,-,N/A,,Scattered Clouds,270,2011-10-14 03:35:00
10:55 PM,46.4,39.2,76,29.71,10.0,West,6.9,-,N/A,,Clear,260,2011-10-14 03:55:00
11:15 PM,50.0,37.4,62,29.73,10.0,NW,18.4,29.9,N/A,,Clear,310,2011-10-14 04:15:00
11:35 PM,50.0,39.2,66,29.72,10.0,NW,10.4,-,N/A,,Scattered Clouds,320,2011-10-14 04:35:00
11:55 PM,48.2,39.2,71,29.72,10.0,NW,8.1,-,N/A,,Scattered Clouds,310,2011-10-14 04:55:00